Haifa, Israel

5:20 PM IST on November 19, 2017 (GMT +0200)
Haifa

Weather History for LLHA - April, 2013

Change the Weather History Date:

Monday, April 8, 2013

  Actual Average Record
Temperature  
Mean Temperature 72 °F -  
Max Temperature 77 °F - - ()
Min Temperature 66 °F - - ()
Cooling Degree Days 8    
Growing Degree Days 22 (Base 50)    
Moisture  
Dew Point 50 °F    
Average Humidity 48    
Maximum Humidity 64    
Minimum Humidity 24    
Precipitation  
Precipitation 0.00 in - - ()
Sea Level Pressure  
Sea Level Pressure 29.87 in    
Wind  
Wind Speed 8 mph ()    
Max Wind Speed 12 mph    
Max Gust Speed 23 mph    
Visibility 2.6 miles    
Events      
T = Trace of Precipitation, MM = Missing Value Source: Averaged Metar Reports

Daily Weather History Graph

Daily Weather History Graph

Search for Another Location

Airport or City:

Trip Planner

Search our weather history database for the weather conditions in past years. The results will help you decide how hot, cold, wet, or windy it might be!

Date:

Astronomy

Apr. 08, 2013 Rise Set
Actual Time 6:18 AM IDT 7:04 PM IDT
Civil Twilight 5:53 AM IDT 7:30 PM IDT
Nautical Twilight 5:24 AM IDT 7:59 PM IDT
Astronomical Twilight 4:54 AM IDT 8:29 PM IDT
Moon 4:51 AM IDT (4/8) 5:22 PM IDT (4/8)
Length of Visible Light 13h 36m
Length of Day
12h 45m
Waning Crescent, 4% of the Moon is Illuminated
Apr 8
Waning Crescent
Apr 10
New
Apr 18
First Quarter
Apr 25
Full
May 2
Last Quarter

Hourly Weather History & Observations

Time (IDT) Temp. Dew Point Humidity Pressure Visibility Wind Dir Wind Speed Gust Speed Precip Events Conditions
6:50 AM 71.6 °F 39.2 °F 31% 29.74 in - ESE 10.4 mph - N/A   Clear
7:50 AM 73.4 °F 39.2 °F 29% 29.74 in - SE 10.4 mph - N/A   Clear
8:50 AM 77.0 °F 37.4 °F 24% 29.77 in 4.3 mi South 6.9 mph - N/A   Unknown
9:50 AM 75.2 °F 50.0 °F 41% 29.80 in 3.7 mi West 6.9 mph - N/A   Clear
10:50 AM 73.4 °F 55.4 °F 53% 29.86 in 3.7 mi West 10.4 mph - N/A   Clear
11:20 AM 73.4 °F 51.8 °F 47% 29.86 in 3.7 mi WNW 9.2 mph - N/A   Clear
11:50 AM 71.6 °F 53.6 °F 53% 29.86 in 3.7 mi West 11.5 mph 23.0 mph N/A   Clear
12:20 PM 71.6 °F 53.6 °F 53% 29.89 in 3.1 mi WNW 10.4 mph 21.9 mph N/A   Clear
12:50 PM 71.6 °F 51.8 °F 50% 29.89 in 1.7 mi WNW 9.2 mph - N/A   Unknown
1:20 PM 71.6 °F 51.8 °F 50% 29.89 in 1.7 mi NW 9.2 mph - N/A   Unknown
1:50 PM 69.8 °F 53.6 °F 56% 29.89 in 1.7 mi North 8.1 mph - N/A   Unknown
2:20 PM 71.6 °F 53.6 °F 53% 29.89 in 1.7 mi North 9.2 mph - N/A   Unknown
2:50 PM 73.4 °F 51.8 °F 47% 29.89 in 1.2 mi NW 6.9 mph - N/A   Unknown
3:20 PM 71.6 °F 50.0 °F 46% 29.89 in 1.6 mi West 8.1 mph - N/A   Unknown
3:50 PM 71.6 °F 50.0 °F 46% 29.89 in 1.7 mi West 10.4 mph - N/A   Unknown
4:20 PM 71.6 °F 51.8 °F 50% 29.89 in 1.7 mi West 11.5 mph - N/A   Unknown
4:50 PM 69.8 °F 50.0 °F 49% 29.89 in 1.7 mi WNW 10.4 mph - N/A   Unknown
5:20 PM 69.8 °F 50.0 °F 49% 29.89 in 1.7 mi West 10.4 mph - N/A   Unknown
5:50 PM 69.8 °F 51.8 °F 53% 29.92 in 2.2 mi West 10.4 mph - N/A   Clear
6:20 PM 68.0 °F 50.0 °F 52% 29.92 in 3.7 mi WNW 9.2 mph - N/A   Partly Cloudy
6:50 PM 68.0 °F 50.0 °F 52% 29.92 in 3.1 mi WNW 10.4 mph - N/A   Partly Cloudy
7:50 PM 66.2 °F 53.6 °F 64% 29.95 in 3.7 mi WNW 9.2 mph - N/A   Scattered Clouds